Terminal Aerodrome Forecast
Issued by NWS Cheyenne, WY

Home | Current Version | Previous Version | Text Only | Print | Product List | Glossary On
Versions: 1 2 3 4 5 6 7 8 9 10 11 12 13 14 15 16 17 18 19 20 21 22 23 24 25 26 27 28 29 30 31 32 33 34
000
FTUS45 KCYS 052246 AAB
TAFCYS
TAF AMD
KCYS 052246Z 0523/0618 34015KT P6SM VCTS BKN100CB
     FM052330 27010KT 3SM -TSRA BKN060CB OVC110
     FM060200 33013KT P6SM -RA VCTS BKN030 OVC050CB
     FM060600 36010KT 4SM RA BKN007 OVC020
     FM061400 02011KT P6SM BKN025=

USA.gov is the U.S. government's official web portal to all federal, state and local government web resources and services.